Simultaneous Nadir Overpasses (SNOs) Predictions

Prediction of SNOs between LANDSAT-8 and NOAA-19 Satellite Orbit:

Table of predicted SNOs for the next 14.0 days since TLE Epoch: 12/20/2015
Index Date (LANDSAT-8) Time (LANDSAT-8) Lat,Lon (LANDSAT-8) SZA (LANDSAT-8 ) Date (NOAA-19) Time (NOAA-19) Lat,Lon (NOAA-19) SZA (NOAA-19 ) Distance(km) Time Diff (sec)
1 12/20/2015 22:30:34 -73.95, 25.38 82.69 12/20/2015 22:30:20 -73.96, 25.42 82.68 1.90 14
2 12/20/2015 23:20:01 73.87,-167.15 97.23 12/20/2015 23:21:14 73.82,-166.96 97.19 8.00 73
3 12/23/2015 03:14:49 -74.08, -45.38 82.55 12/23/2015 03:13:36 -74.19, -45.94 82.45 20.90 73
4 12/23/2015 04:04:17 73.95, 121.96 97.32 12/23/2015 04:04:28 73.96, 121.91 97.33 2.18 11
5 12/25/2015 08:48:33 74.03, 51.06 97.36 12/25/2015 08:47:40 74.02, 51.02 97.35 1.43 53
6 12/25/2015 09:38:02 -73.96,-141.46 82.72 12/25/2015 09:38:44 -73.94,-141.54 82.74 3.29 42
7 12/27/2015 14:22:19 -73.98, 147.51 82.78 12/27/2015 14:21:56 -73.99, 147.57 82.76 2.59 23
8 12/27/2015 15:11:45 73.94, -44.92 97.19 12/27/2015 15:12:51 73.92, -44.98 97.17 3.24 66
9 12/29/2015 19:06:26 -74.50, 77.66 82.35 12/29/2015 19:05:18 -74.53, 75.37 82.35 68.32 68
10 12/29/2015 19:56:01 74.00,-115.86 97.14 12/29/2015 19:56:03 73.98,-115.89 97.12 2.65 2
11 01/01/2016 00:40:17 74.06, 173.20 97.04 01/01/2016 00:39:15 74.05, 173.18 97.03 0.92 62
12 01/01/2016 01:29:47 -73.94, -19.43 83.09 01/01/2016 01:30:19 -73.97, -19.38 83.06 3.19 32
13 01/03/2016 06:14:02 -74.04,
